Time,TemperatureF,DewpointF,PressureIn,WindDirection,WindDirectionDegrees,WindSpeedMPH,WindSpeedGustMPH,Humidity,HourlyPrecipIn,Conditions,Clouds,dailyrainin,SoftwareType,DateUTC
2013-08-05 00:02:00,57.9,55.7,29.94,SSE,158,0.0,0.0,92,0.00,,,0.00,WSDL version 420,2013-08-05 04:02:00,
2013-08-05 00:05:00,58.0,56.0,29.94,WSW,248,0.0,0.0,93,0.00,,,0.00,WSDL version 420,2013-08-05 04:05:00,
2013-08-05 00:08:00,58.0,56.0,29.94,SSW,203,0.0,0.0,93,0.00,,,0.00,WSDL version 420,2013-08-05 04:08:00,
2013-08-05 00:12:00,57.8,55.7,29.94,WSW,248,0.0,0.0,92,0.00,,,0.00,WSDL version 420,2013-08-05 04:12:00,
2013-08-05 00:18:00,57.8,55.8,29.94,WSW,248,0.0,0.0,93,0.00,,,0.00,WSDL version 420,2013-08-05 04:18:00,
2013-08-05 00:24:00,-999.0,-99.9,29.94,WSW,248,0.0,0.0,-999,0.00,,,0.00,WSDL version 420,2013-08-05 04:24:00,
2013-08-05 00:30:00,57.8,55.9,29.94,WSW,248,0.0,0.0,93,0.00,,,0.00,WSDL version 420,2013-08-05 04:30:00,
2013-08-05 00:36:00,57.9,56.0,29.94,WSW,248,0.0,0.0,93,0.00,,,0.00,WSDL version 420,2013-08-05 04:36:00,
2013-08-05 00:42:00,57.6,55.7,29.94,WSW,248,0.0,0.0,93,0.00,,,0.00,WSDL version 420,2013-08-05 04:42:00,
2013-08-05 00:48:00,57.7,55.8,29.94,WSW,248,0.0,0.0,93,0.00,,,0.00,WSDL version 420,2013-08-05 04:48:00,
2013-08-05 00:55:00,57.9,56.0,29.94,NW,304,0.0,0.0,93,0.00,,,0.00,WSDL version 420,2013-08-05 04:55:00,
2013-08-05 01:01:00,57.9,56.0,29.94,WNW,293,0.0,0.0,93,0.00,,,0.00,WSDL version 420,2013-08-05 05:01:00,
2013-08-05 01:07:00,57.7,55.7,29.94,WNW,293,0.0,0.0,93,0.00,,,0.00,WSDL version 420,2013-08-05 05:07:00,
2013-08-05 01:13:00,57.6,55.7,29.94,WNW,293,0.0,0.0,93,0.00,,,0.00,WSDL version 420,2013-08-05 05:13:00,
2013-08-05 01:19:00,57.6,55.7,29.94,WNW,293,0.0,0.0,93,0.00,,,0.00,WSDL version 420,2013-08-05 05:19:00,
2013-08-05 01:25:00,57.5,55.6,29.94,WNW,293,0.0,0.0,93,0.00,,,0.00,WSDL version 420,2013-08-05 05:25:00,
2013-08-05 01:31:00,-999.0,-99.9,29.94,SW,214,0.0,0.0,-999,0.00,,,0.00,WSDL version 420,2013-08-05 05:31:00,
2013-08-05 01:37:00,57.5,55.6,29.94,WSW,248,2.2,2.2,93,0.00,,,0.00,WSDL version 420,2013-08-05 05:37:00,
2013-08-05 01:43:00,57.4,55.5,29.94,WSW,248,0.0,2.2,93,0.00,,,0.00,WSDL version 420,2013-08-05 05:43:00,
2013-08-05 01:50:00,57.1,55.2,29.94,SW,225,0.0,0.0,93,0.00,,,0.00,WSDL version 420,2013-08-05 05:50:00,
2013-08-05 01:56:00,57.2,55.3,29.94,SW,225,0.3,0.9,93,0.00,,,0.00,WSDL version 420,2013-08-05 05:56:00,
2013-08-05 02:02:00,57.1,55.2,29.94,SW,225,1.0,2.0,93,0.00,,,0.00,WSDL version 420,2013-08-05 06:02:00,
2013-08-05 02:08:00,57.1,55.2,29.94,SW,225,0.0,2.0,93,0.00,,,0.00,WSDL version 420,2013-08-05 06:08:00,
2013-08-05 02:14:00,57.1,55.2,29.94,SW,225,0.0,0.0,93,0.00,,,0.00,WSDL version 420,2013-08-05 06:14:00,
2013-08-05 02:21:00,56.7,54.8,29.94,WSW,248,0.0,0.0,93,0.00,,,0.00,WSDL version 420,2013-08-05 06:21:00,
2013-08-05 02:27:00,56.7,54.8,29.94,WSW,248,0.0,0.0,93,0.00,,,0.00,WSDL version 420,2013-08-05 06:27:00,
2013-08-05 02:33:00,56.3,54.2,29.94,WSW,248,0.0,0.0,92,0.00,,,0.00,WSDL version 420,2013-08-05 06:33:00,
2013-08-05 02:39:00,56.5,54.6,29.94,SW,225,0.0,0.0,93,0.00,,,0.00,WSDL version 420,2013-08-05 06:39:00,
2013-08-05 02:45:00,56.5,54.6,29.94,SW,225,0.0,0.0,93,0.00,,,0.00,WSDL version 420,2013-08-05 06:45:00,
2013-08-05 02:51:00,56.6,54.7,29.94,SW,225,0.0,0.0,93,0.00,,,0.00,WSDL version 420,2013-08-05 06:51:00,
2013-08-05 02:57:00,56.5,54.6,29.94,SW,225,0.0,0.0,93,0.00,,,0.00,WSDL version 420,2013-08-05 06:57:00,
2013-08-05 03:04:00,56.4,54.5,29.94,SW,225,0.0,0.0,93,0.00,,,0.00,WSDL version 420,2013-08-05 07:04:00,
2013-08-05 03:10:00,56.3,54.5,29.94,SW,225,0.0,0.0,93,0.00,,,0.00,WSDL version 420,2013-08-05 07:10:00,
2013-08-05 03:16:00,56.3,54.6,29.94,SW,225,0.0,0.0,94,0.00,,,0.00,WSDL version 420,2013-08-05 07:16:00,
2013-08-05 03:22:00,56.2,54.3,29.94,SW,225,0.0,0.0,93,0.00,,,0.00,WSDL version 420,2013-08-05 07:22:00,
2013-08-05 03:28:00,56.1,54.2,29.94,SE,135,0.0,0.0,93,0.00,,,0.00,WSDL version 420,2013-08-05 07:28:00,
2013-08-05 03:34:00,56.1,54.2,29.94,SW,225,0.0,0.0,93,0.00,,,0.00,WSDL version 420,2013-08-05 07:34:00,
2013-08-05 03:40:00,55.9,54.0,29.94,SW,225,0.0,0.0,93,0.00,,,0.00,WSDL version 420,2013-08-05 07:40:00,
2013-08-05 03:47:00,56.0,54.3,29.94,SW,225,0.0,0.0,94,0.00,,,0.00,WSDL version 420,2013-08-05 07:47:00,
2013-08-05 03:52:00,56.0,54.5,29.94,SW,225,0.0,0.0,94,0.00,,,0.00,WSDL version 420,2013-08-05 07:52:00,
2013-08-05 03:59:00,55.9,54.2,29.94,SW,225,0.0,0.0,94,0.00,,,0.00,WSDL version 420,2013-08-05 07:59:00,
2013-08-05 04:05:00,55.8,54.0,29.94,SW,225,0.0,0.0,93,0.00,,,0.00,WSDL version 420,2013-08-05 08:05:00,
2013-08-05 04:13:00,56.1,54.5,29.94,SW,225,0.0,0.0,94,0.00,,,0.00,WSDL version 420,2013-08-05 08:13:00,
2013-08-05 04:19:00,-999.0,-99.9,29.94,SW,225,0.0,0.0,-999,0.00,,,0.00,WSDL version 420,2013-08-05 08:19:00,
2013-08-05 04:25:00,56.1,54.5,29.94,SW,225,0.0,0.0,94,0.00,,,0.00,WSDL version 420,2013-08-05 08:25:00,
2013-08-05 04:32:00,56.1,54.5,29.94,SW,225,0.0,0.0,94,0.00,,,0.00,WSDL version 420,2013-08-05 08:32:00,
2013-08-05 04:37:00,55.9,54.3,29.97,SW,225,0.0,0.0,94,0.00,,,0.00,WSDL version 420,2013-08-05 08:37:00,
2013-08-05 04:44:00,55.9,54.4,29.97,SW,225,0.0,0.0,94,0.00,,,0.00,WSDL version 420,2013-08-05 08:44:00,
2013-08-05 04:49:00,-999.0,-99.9,29.97,SW,225,0.0,0.0,-999,-99.99,,,-99.99,WSDL version 420,2013-08-05 08:49:00,
2013-08-05 04:56:00,56.0,54.4,29.97,SW,225,0.0,0.0,94,0.00,,,0.00,WSDL version 420,2013-08-05 08:56:00,
2013-08-05 05:02:00,-999.0,-99.9,29.97,SW,225,0.0,0.0,-999,0.00,,,0.00,WSDL version 420,2013-08-05 09:02:00,
2013-08-05 05:10:00,55.9,54.0,29.97,SW,225,0.0,0.0,93,0.00,,,0.00,WSDL version 420,2013-08-05 09:10:00,
2013-08-05 05:17:00,55.8,53.9,29.97,SW,225,0.0,0.0,93,0.00,,,0.00,WSDL version 420,2013-08-05 09:17:00,
2013-08-05 05:24:00,55.7,53.8,-100.00,SW,225,0.0,0.0,93,0.00,,,0.00,WSDL version 420,2013-08-05 09:24:00,
2013-08-05 05:30:00,55.6,53.7,29.97,SW,225,0.0,0.0,93,0.00,,,0.00,WSDL version 420,2013-08-05 09:30:00,
2013-08-05 05:36:00,55.5,53.6,29.97,SW,225,0.0,0.0,93,0.00,,,0.00,WSDL version 420,2013-08-05 09:36:00,
2013-08-05 05:42:00,-999.0,-99.9,29.97,SW,225,0.0,0.0,-999,0.00,,,0.00,WSDL version 420,2013-08-05 09:42:00,
2013-08-05 05:48:00,55.2,53.6,29.97,SW,225,0.0,0.0,94,0.00,,,0.00,WSDL version 420,2013-08-05 09:48:00,
2013-08-05 05:54:00,55.2,53.7,29.97,SW,225,0.0,0.0,94,0.00,,,0.00,WSDL version 420,2013-08-05 09:54:00,
2013-08-05 06:00:00,55.4,53.8,29.97,SW,225,0.0,0.0,94,0.00,,,0.00,WSDL version 420,2013-08-05 10:00:00,
2013-08-05 06:08:00,55.3,53.4,29.97,SW,225,0.0,0.0,93,0.00,,,0.00,WSDL version 420,2013-08-05 10:08:00,
2013-08-05 06:14:00,55.3,53.6,29.97,SW,225,0.0,0.0,93,0.00,,,0.00,WSDL version 420,2013-08-05 10:14:00,
2013-08-05 06:20:00,55.3,53.6,30.00,SW,225,0.0,0.0,94,0.00,,,0.00,WSDL version 420,2013-08-05 10:20:00,
2013-08-05 06:27:00,55.3,53.7,30.00,SW,225,0.0,0.0,94,0.00,,,0.00,WSDL version 420,2013-08-05 10:27:00,
2013-08-05 06:33:00,55.6,54.0,30.00,SW,225,0.0,0.0,94,0.00,,,0.00,WSDL version 420,2013-08-05 10:33:00,
2013-08-05 06:39:00,55.8,54.0,30.00,SW,225,0.0,0.0,93,0.00,,,0.00,WSDL version 420,2013-08-05 10:39:00,
2013-08-05 06:45:00,55.9,54.0,30.00,SW,225,0.0,0.0,93,0.00,,,0.00,WSDL version 420,2013-08-05 10:45:00,
2013-08-05 06:51:00,56.0,54.1,30.00,SW,225,0.0,0.0,93,0.00,,,0.00,WSDL version 420,2013-08-05 10:51:00,
2013-08-05 06:57:00,56.2,54.3,30.00,SW,225,0.0,0.0,93,0.00,,,0.00,WSDL version 420,2013-08-05 10:57:00,
2013-08-05 07:03:00,56.4,54.5,30.00,South,191,0.0,0.0,93,0.00,,,0.00,WSDL version 420,2013-08-05 11:03:00,
2013-08-05 07:09:00,56.7,54.8,30.00,SE,135,0.9,0.9,93,0.00,,,0.00,WSDL version 420,2013-08-05 11:09:00,
2013-08-05 07:15:00,57.0,55.1,30.00,North,-999,-999.0,-999.0,93,0.00,,,0.00,WSDL version 420,2013-08-05 11:15:00,
2013-08-05 07:25:00,57.3,55.1,30.00,SSE,158,1.3,1.3,92,0.00,,,0.00,WSDL version 420,2013-08-05 11:25:00,
2013-08-05 07:31:00,57.6,55.3,30.00,South,180,0.0,1.3,92,0.00,,,0.00,WSDL version 420,2013-08-05 11:31:00,
2013-08-05 07:37:00,58.0,55.4,30.00,South,180,0.0,0.9,91,0.00,,,0.00,WSDL version 420,2013-08-05 11:37:00,
2013-08-05 07:44:00,58.1,55.3,30.00,SW,225,0.0,0.0,90,0.00,,,0.00,WSDL version 420,2013-08-05 11:44:00,
2013-08-05 07:52:00,58.5,55.5,30.00,SW,218,0.0,0.0,90,0.00,,,0.00,WSDL version 420,2013-08-05 11:52:00,
2013-08-05 07:58:00,58.8,55.7,30.00,SE,128,0.8,2.5,89,0.00,,,0.00,WSDL version 420,2013-08-05 11:58:00,
2013-08-05 08:04:00,59.3,55.7,30.00,South,180,0.8,3.1,88,0.00,,,0.00,WSDL version 420,2013-08-05 12:04:00,
2013-08-05 08:10:00,59.5,55.6,30.00,SE,135,0.0,2.5,87,0.00,,,0.00,WSDL version 420,2013-08-05 12:10:00,
2013-08-05 08:18:00,59.9,55.4,30.03,SSE,152,1.6,2.7,84,0.00,,,0.00,WSDL version 420,2013-08-05 12:18:00,
2013-08-05 08:24:00,60.1,55.4,30.03,SW,225,1.3,2.7,84,0.00,,,0.00,WSDL version 420,2013-08-05 12:24:00,
2013-08-05 08:30:00,-999.0,-99.9,30.03,East,90,2.7,2.7,-999,0.00,,,0.00,WSDL version 420,2013-08-05 12:30:00,
2013-08-05 08:37:00,60.7,55.4,30.03,SE,146,0.7,2.7,82,0.00,,,0.00,WSDL version 420,2013-08-05 12:37:00,
2013-08-05 08:43:00,61.2,55.2,30.03,East,90,2.2,3.6,80,0.00,,,0.00,WSDL version 420,2013-08-05 12:43:00,
2013-08-05 08:48:00,61.5,55.0,30.03,NE,34,2.6,4.0,79,0.00,,,0.00,WSDL version 420,2013-08-05 12:48:00,
2013-08-05 08:55:00,61.5,54.7,30.03,WSW,248,0.0,4.0,79,0.00,,,0.00,WSDL version 420,2013-08-05 12:55:00,
2013-08-05 09:01:00,62.0,55.2,30.03,SE,128,0.5,4.0,78,0.00,,,0.00,WSDL version 420,2013-08-05 13:01:00,
2013-08-05 09:11:00,63.0,54.2,30.03,ESE,118,2.7,3.6,71,0.00,,,0.00,WSDL version 420,2013-08-05 13:11:00,
2013-08-05 09:17:00,63.1,54.1,30.03,SW,214,0.7,3.6,72,0.00,,,0.00,WSDL version 420,2013-08-05 13:17:00,
2013-08-05 09:23:00,63.7,54.7,30.00,SSE,158,3.1,4.7,73,0.00,,,0.00,WSDL version 420,2013-08-05 13:23:00,
2013-08-05 09:29:00,63.8,53.6,30.00,ESE,113,3.8,5.6,68,0.00,,,0.00,WSDL version 420,2013-08-05 13:29:00,
2013-08-05 09:37:00,64.0,53.0,30.03,WNW,293,2.2,4.3,65,0.00,,,0.00,WSDL version 420,2013-08-05 13:37:00,
2013-08-05 09:45:00,64.7,52.0,30.03,SE,135,3.1,3.4,61,0.00,,,0.00,WSDL version 420,2013-08-05 13:45:00,
2013-08-05 09:54:00,65.1,52.7,30.03,SE,135,2.0,3.4,66,0.00,,,0.00,WSDL version 420,2013-08-05 13:54:00,
2013-08-05 10:00:00,65.2,51.3,30.03,SE,135,3.1,4.0,61,0.00,,,0.00,WSDL version 420,2013-08-05 14:00:00,
2013-08-05 10:06:00,65.5,51.9,30.03,North,349,2.9,4.0,59,0.00,,,0.00,WSDL version 420,2013-08-05 14:06:00,
2013-08-05 10:12:00,66.1,49.4,30.03,South,180,6.5,6.5,55,0.00,,,0.00,WSDL version 420,2013-08-05 14:12:00,
2013-08-05 10:18:00,66.6,48.9,30.03,WSW,248,2.2,6.5,53,0.00,,,0.00,WSDL version 420,2013-08-05 14:18:00,
2013-08-05 10:25:00,66.6,49.9,30.03,East,90,4.1,6.5,51,0.00,,,0.00,WSDL version 420,2013-08-05 14:25:00,
2013-08-05 10:30:00,66.9,49.5,30.03,SSE,158,2.8,5.6,55,0.00,,,0.00,WSDL version 420,2013-08-05 14:30:00,
2013-08-05 10:37:00,67.0,49.3,30.03,SE,135,3.4,3.8,53,0.00,,,0.00,WSDL version 420,2013-08-05 14:37:00,
2013-08-05 10:43:00,67.2,48.7,30.03,ESE,109,2.5,5.4,51,0.00,,,0.00,WSDL version 420,2013-08-05 14:43:00,
2013-08-05 10:51:00,67.5,48.2,30.03,SSE,150,2.9,3.6,50,0.00,,,0.00,WSDL version 420,2013-08-05 14:51:00,
2013-08-05 10:57:00,-999.0,-99.9,30.03,ESE,120,2.8,5.6,-999,0.00,,,0.00,WSDL version 420,2013-08-05 14:57:00,
2013-08-05 11:03:00,68.4,48.5,30.03,SE,135,2.9,3.8,49,0.00,,,0.00,WSDL version 420,2013-08-05 15:03:00,
2013-08-05 11:09:00,-999.0,-99.9,30.03,ESE,113,3.5,4.3,-999,0.00,,,0.00,WSDL version 420,2013-08-05 15:09:00,
2013-08-05 11:15:00,69.1,49.7,30.03,SE,135,4.3,4.3,49,0.00,,,0.00,WSDL version 420,2013-08-05 15:15:00,
2013-08-05 11:22:00,-999.0,-99.9,30.03,SE,143,2.6,4.3,-999,0.00,,,0.00,WSDL version 420,2013-08-05 15:22:00,
2013-08-05 11:29:00,69.2,50.1,30.03,SE,124,2.6,4.9,51,0.00,,,0.00,WSDL version 420,2013-08-05 15:29:00,
2013-08-05 11:36:00,69.6,49.9,30.03,South,180,3.1,5.4,50,0.00,,,0.00,WSDL version 420,2013-08-05 15:36:00,
2013-08-05 11:42:00,69.9,49.6,30.03,SW,225,1.6,5.6,48,0.00,,,0.00,WSDL version 420,2013-08-05 15:42:00,
2013-08-05 11:48:00,70.7,51.2,30.03,ESE,105,3.1,5.6,50,0.00,,,0.00,WSDL version 420,2013-08-05 15:48:00,
2013-08-05 11:58:00,71.5,50.8,30.03,East,90,5.4,5.4,46,0.00,,,0.00,WSDL version 420,2013-08-05 15:58:00,
2013-08-05 12:05:00,71.6,49.8,30.03,NE,45,3.4,7.4,46,0.00,,,0.00,WSDL version 420,2013-08-05 16:05:00,
2013-08-05 12:11:00,71.7,49.5,30.03,SE,135,3.2,7.4,46,0.00,,,0.00,WSDL version 420,2013-08-05 16:11:00,
2013-08-05 12:17:00,71.9,50.4,30.03,SW,225,2.7,4.3,46,0.00,,,0.00,WSDL version 420,2013-08-05 16:17:00,
2013-08-05 12:23:00,71.8,50.5,30.03,NW,326,1.6,4.3,48,0.00,,,0.00,WSDL version 420,2013-08-05 16:23:00,
2013-08-05 12:29:00,72.3,50.3,30.03,SE,135,2.5,5.4,46,0.00,,,0.00,WSDL version 420,2013-08-05 16:29:00,
2013-08-05 12:37:00,72.7,50.4,30.00,East,95,3.4,4.7,45,0.00,,,0.00,WSDL version 420,2013-08-05 16:37:00,
2013-08-05 12:44:00,72.9,51.0,30.00,ESE,120,2.8,4.7,46,0.00,,,0.00,WSDL version 420,2013-08-05 16:44:00,
2013-08-05 12:50:00,73.4,50.4,30.03,SE,135,4.7,4.9,44,0.00,,,0.00,WSDL version 420,2013-08-05 16:50:00,
2013-08-05 12:56:00,73.6,50.4,30.03,SW,225,1.3,4.7,44,0.00,,,0.00,WSDL version 420,2013-08-05 16:56:00,
2013-08-05 13:02:00,73.8,49.3,30.03,SSE,158,2.9,4.9,42,0.00,,,0.00,WSDL version 420,2013-08-05 17:02:00,
2013-08-05 13:09:00,73.7,50.6,30.00,SSW,210,2.8,3.4,44,0.00,,,0.00,WSDL version 420,2013-08-05 17:09:00,
2013-08-05 13:17:00,73.9,50.7,30.00,NE,45,2.5,4.7,43,0.00,,,0.00,WSDL version 420,2013-08-05 17:17:00,
2013-08-05 13:23:00,74.9,51.1,30.00,SSW,203,2.3,4.7,43,0.00,,,0.00,WSDL version 420,2013-08-05 17:23:00,
2013-08-05 13:29:00,75.2,50.9,30.00,ESE,122,2.3,5.4,43,0.00,,,0.00,WSDL version 420,2013-08-05 17:29:00,
2013-08-05 13:35:00,74.1,50.0,30.00,SSE,165,2.8,5.4,43,0.00,,,0.00,WSDL version 420,2013-08-05 17:35:00,
2013-08-05 13:43:00,74.5,51.0,30.00,WNW,288,2.1,3.8,43,0.00,,,0.00,WSDL version 420,2013-08-05 17:43:00,
2013-08-05 13:53:00,75.5,50.4,30.00,East,79,3.5,4.0,41,0.00,,,0.00,WSDL version 420,2013-08-05 17:53:00,
2013-08-05 14:03:00,75.9,50.9,30.00,SE,124,2.9,4.0,42,0.00,,,0.00,WSDL version 420,2013-08-05 18:03:00,
2013-08-05 14:09:00,75.7,51.0,30.00,South,171,2.7,4.0,42,0.00,,,0.00,WSDL version 420,2013-08-05 18:09:00,
2013-08-05 14:15:00,75.7,51.3,30.00,NNW,338,1.5,3.6,43,0.00,,,0.00,WSDL version 420,2013-08-05 18:15:00,
2013-08-05 14:23:00,75.6,50.7,30.00,South,180,3.0,3.8,41,0.00,,,0.00,WSDL version 420,2013-08-05 18:23:00,
2013-08-05 14:29:00,75.7,51.0,30.00,ESE,113,3.0,3.8,41,0.00,,,0.00,WSDL version 420,2013-08-05 18:29:00,
2013-08-05 14:35:00,75.3,50.2,30.00,ENE,75,3.0,3.8,42,0.00,,,0.00,WSDL version 420,2013-08-05 18:35:00,
2013-08-05 14:43:00,76.0,51.1,30.00,West,270,2.5,5.4,42,0.00,,,0.00,WSDL version 420,2013-08-05 18:43:00,
2013-08-05 14:49:00,76.0,51.3,29.97,SE,124,1.6,2.7,42,0.00,,,0.00,WSDL version 420,2013-08-05 18:49:00,
2013-08-05 14:56:00,76.2,51.1,29.97,ESE,113,4.0,4.0,42,0.00,,,0.00,WSDL version 420,2013-08-05 18:56:00,
2013-08-05 15:06:00,75.1,50.7,30.00,SSW,203,1.7,4.0,42,0.00,,,0.00,WSDL version 420,2013-08-05 19:06:00,
2013-08-05 15:12:00,75.1,50.5,30.00,SSW,203,0.0,4.0,42,0.00,,,0.00,WSDL version 420,2013-08-05 19:12:00,
2013-08-05 15:18:00,75.2,50.3,30.00,East,99,3.2,5.4,42,0.00,,,0.00,WSDL version 420,2013-08-05 19:18:00,
2013-08-05 15:24:00,74.8,49.9,29.97,NE,56,2.7,5.4,41,0.00,,,0.00,WSDL version 420,2013-08-05 19:24:00,
2013-08-05 15:34:00,74.8,50.7,29.97,SSE,150,1.6,4.0,42,0.00,,,0.00,WSDL version 420,2013-08-05 19:34:00,
2013-08-05 15:40:00,75.0,50.4,29.97,East,101,3.1,4.7,41,0.00,,,0.00,WSDL version 420,2013-08-05 19:40:00,
2013-08-05 15:46:00,74.8,50.2,29.97,ENE,68,1.1,3.6,42,0.00,,,0.00,WSDL version 420,2013-08-05 19:46:00,
2013-08-05 15:52:00,75.0,50.4,29.97,SSE,158,1.2,1.6,42,0.00,,,0.00,WSDL version 420,2013-08-05 19:52:00,
2013-08-05 16:02:00,74.7,50.6,29.97,SW,225,1.1,1.6,42,0.00,,,0.00,WSDL version 420,2013-08-05 20:02:00,
2013-08-05 16:08:00,74.4,50.0,29.97,East,90,2.6,2.7,42,0.00,,,0.00,WSDL version 420,2013-08-05 20:08:00,
2013-08-05 16:15:00,74.2,50.3,29.97,SE,124,2.2,3.1,43,0.00,,,0.00,WSDL version 420,2013-08-05 20:15:00,
2013-08-05 16:21:00,73.8,49.7,29.97,SSE,158,0.0,3.1,43,0.00,,,0.00,WSDL version 420,2013-08-05 20:21:00,
2013-08-05 16:29:00,73.6,49.9,29.97,SSE,152,0.5,2.9,44,0.00,,,0.00,WSDL version 420,2013-08-05 20:29:00,
2013-08-05 16:37:00,72.7,49.7,29.97,East,99,2.0,3.8,45,0.00,,,0.00,WSDL version 420,2013-08-05 20:37:00,
2013-08-05 16:43:00,73.2,49.6,29.97,South,180,2.0,4.3,43,0.00,,,0.00,WSDL version 420,2013-08-05 20:43:00,
2013-08-05 16:49:00,72.9,50.3,29.97,SE,135,0.7,4.3,45,0.00,,,0.00,WSDL version 420,2013-08-05 20:49:00,
2013-08-05 16:55:00,72.2,49.7,29.97,South,169,1.7,2.5,46,0.00,,,0.00,WSDL version 420,2013-08-05 20:55:00,
2013-08-05 17:01:00,72.0,49.3,29.97,South,180,1.1,2.5,45,0.00,,,0.00,WSDL version 420,2013-08-05 21:01:00,
2013-08-05 17:08:00,71.5,49.1,29.97,NNE,30,0.7,2.5,46,0.00,,,0.00,WSDL version 420,2013-08-05 21:08:00,
2013-08-05 17:14:00,71.1,49.3,29.97,NNE,23,1.3,2.7,46,0.00,,,0.00,WSDL version 420,2013-08-05 21:14:00,
2013-08-05 17:20:00,71.0,49.8,29.97,West,270,0.0,2.7,48,0.00,,,0.00,WSDL version 420,2013-08-05 21:20:00,
2013-08-05 17:27:00,-999.0,-99.9,29.97,NW,315,1.1,2.5,-999,0.00,,,0.00,WSDL version 420,2013-08-05 21:27:00,
2013-08-05 17:33:00,70.0,49.2,29.97,WSW,248,0.0,2.5,49,0.00,,,0.00,WSDL version 420,2013-08-05 21:33:00,
2013-08-05 17:39:00,69.1,49.1,29.97,WSW,248,0.0,0.0,49,0.00,,,0.00,WSDL version 420,2013-08-05 21:39:00,
2013-08-05 17:45:00,68.7,49.5,29.97,WNW,293,0.0,0.0,51,0.00,,,0.00,WSDL version 420,2013-08-05 21:45:00,
2013-08-05 17:52:00,68.4,49.0,29.97,East,90,0.0,2.2,50,0.00,,,0.00,WSDL version 420,2013-08-05 21:52:00,
2013-08-05 17:58:00,68.2,49.0,29.97,WNW,293,0.0,2.2,51,0.00,,,0.00,WSDL version 420,2013-08-05 21:58:00,
2013-08-05 18:04:00,67.9,49.5,29.97,WNW,293,0.0,0.9,51,0.00,,,0.00,WSDL version 420,2013-08-05 22:04:00,
2013-08-05 18:11:00,68.1,48.8,29.97,WNW,293,0.0,0.0,50,0.00,,,0.00,WSDL version 420,2013-08-05 22:11:00,
2013-08-05 18:21:00,68.0,48.7,29.97,West,270,0.0,0.0,50,0.00,,,0.00,WSDL version 420,2013-08-05 22:21:00,
2013-08-05 18:29:00,68.2,48.9,29.97,West,270,0.0,1.6,50,0.00,,,0.00,WSDL version 420,2013-08-05 22:29:00,
2013-08-05 18:35:00,67.9,48.8,29.97,West,270,0.8,1.6,51,0.00,,,0.00,WSDL version 420,2013-08-05 22:35:00,
2013-08-05 18:43:00,67.5,48.8,29.97,West,266,1.4,2.0,51,0.00,,,0.00,WSDL version 420,2013-08-05 22:43:00,
2013-08-05 18:49:00,67.2,49.0,29.97,West,263,1.6,2.2,52,0.00,,,0.00,WSDL version 420,2013-08-05 22:49:00,
2013-08-05 18:55:00,66.9,49.4,29.97,West,270,1.5,2.2,54,0.00,,,0.00,WSDL version 420,2013-08-05 22:55:00,
2013-08-05 19:02:00,66.6,49.9,29.97,West,270,0.4,1.6,55,0.00,,,0.00,WSDL version 420,2013-08-05 23:02:00,
2013-08-05 19:08:00,66.3,50.7,30.00,West,270,0.0,1.6,58,0.00,,,0.00,WSDL version 420,2013-08-05 23:08:00,
2013-08-05 19:14:00,66.0,51.1,30.00,West,270,0.0,0.0,59,0.00,,,0.00,WSDL version 420,2013-08-05 23:14:00,
2013-08-05 19:20:00,65.6,51.5,30.00,West,270,0.0,0.0,61,0.00,,,0.00,WSDL version 420,2013-08-05 23:20:00,
2013-08-05 19:28:00,64.9,52.1,30.00,West,270,0.0,0.0,63,0.00,,,0.00,WSDL version 420,2013-08-05 23:28:00,
2013-08-05 19:34:00,64.7,52.0,30.00,West,270,0.0,0.0,64,0.00,,,0.00,WSDL version 420,2013-08-05 23:34:00,
2013-08-05 19:40:00,64.2,52.2,30.00,West,270,0.0,0.0,65,0.00,,,0.00,WSDL version 420,2013-08-05 23:40:00,
2013-08-05 19:46:00,63.9,51.7,30.00,West,270,0.0,0.0,64,0.00,,,0.00,WSDL version 420,2013-08-05 23:46:00,
2013-08-05 19:53:00,63.6,51.9,30.00,West,270,0.0,0.0,66,-99.99,,,-99.99,WSDL version 420,2013-08-05 23:53:00,
2013-08-05 19:59:00,63.1,51.5,30.00,West,270,0.0,0.0,67,0.00,,,0.00,WSDL version 420,2013-08-05 23:59:00,
2013-08-05 20:05:00,63.0,52.0,30.00,West,270,0.0,0.0,67,0.00,,,0.00,WSDL version 420,2013-08-06 00:05:00,
2013-08-05 20:13:00,62.7,52.4,30.00,West,270,0.0,0.0,69,0.00,,,0.00,WSDL version 420,2013-08-06 00:13:00,
2013-08-05 20:19:00,-999.0,-99.9,30.00,West,270,0.0,0.0,-999,0.00,,,0.00,WSDL version 420,2013-08-06 00:19:00,
2013-08-05 20:28:00,62.4,52.4,30.00,West,270,0.0,0.0,70,0.00,,,0.00,WSDL version 420,2013-08-06 00:28:00,
2013-08-05 20:36:00,61.7,52.2,30.00,West,270,0.0,0.0,71,0.00,,,0.00,WSDL version 420,2013-08-06 00:36:00,
2013-08-05 20:42:00,61.5,52.2,30.00,West,270,0.0,0.0,71,0.00,,,0.00,WSDL version 420,2013-08-06 00:42:00,
2013-08-05 20:50:00,61.2,52.1,30.03,West,270,0.0,0.0,72,0.00,,,0.00,WSDL version 420,2013-08-06 00:50:00,
2013-08-05 20:58:00,61.0,52.3,30.03,West,270,0.0,0.0,73,0.00,,,0.00,WSDL version 420,2013-08-06 00:58:00,
2013-08-05 21:04:00,61.1,52.5,30.03,West,270,0.0,0.0,74,0.00,,,0.00,WSDL version 420,2013-08-06 01:04:00,
2013-08-05 21:12:00,60.9,52.9,30.03,West,270,0.0,0.0,75,0.00,,,0.00,WSDL version 420,2013-08-06 01:12:00,
2013-08-05 21:18:00,60.9,53.1,30.03,West,270,0.0,0.0,75,0.00,,,0.00,WSDL version 420,2013-08-06 01:18:00,
2013-08-05 21:24:00,60.7,53.1,30.03,West,270,0.0,0.0,76,0.00,,,0.00,WSDL version 420,2013-08-06 01:24:00,
2013-08-05 21:31:00,60.4,53.1,30.03,West,270,0.0,0.0,78,0.00,,,0.00,WSDL version 420,2013-08-06 01:31:00,
2013-08-05 21:40:00,60.1,53.4,30.03,West,270,0.0,0.0,79,0.00,,,0.00,WSDL version 420,2013-08-06 01:40:00,
2013-08-05 21:47:00,60.3,53.6,30.03,West,270,0.0,0.0,79,0.00,,,0.00,WSDL version 420,2013-08-06 01:47:00,
2013-08-05 21:53:00,59.8,53.1,30.03,West,270,0.0,0.0,78,0.00,,,0.00,WSDL version 420,2013-08-06 01:53:00,
2013-08-05 22:00:00,59.7,52.9,30.03,West,270,0.0,0.0,78,0.00,,,0.00,WSDL version 420,2013-08-06 02:00:00,
2013-08-05 22:06:00,59.5,53.1,30.03,West,270,0.0,0.0,80,0.00,,,0.00,WSDL version 420,2013-08-06 02:06:00,
2013-08-05 22:12:00,59.4,53.3,30.03,West,270,0.0,0.0,80,0.00,,,0.00,WSDL version 420,2013-08-06 02:12:00,
2013-08-05 22:18:00,59.2,53.1,30.03,West,270,0.0,0.0,80,0.00,,,0.00,WSDL version 420,2013-08-06 02:18:00,
2013-08-05 22:24:00,59.2,53.0,30.03,West,270,0.0,0.0,80,0.00,,,0.00,WSDL version 420,2013-08-06 02:24:00,
2013-08-05 22:30:00,-999.0,-99.9,30.03,West,270,0.0,0.0,-999,0.00,,,0.00,WSDL version 420,2013-08-06 02:30:00,
2013-08-05 22:44:00,59.5,53.7,30.03,West,270,0.0,0.0,81,0.00,,,0.00,WSDL version 420,2013-08-06 02:44:00,
2013-08-05 22:51:00,59.1,53.4,30.03,West,270,0.0,0.0,81,0.00,,,0.00,WSDL version 420,2013-08-06 02:51:00,
2013-08-05 22:57:00,59.4,53.6,30.03,SSW,203,0.0,0.0,81,0.00,,,0.00,WSDL version 420,2013-08-06 02:57:00,
2013-08-05 23:03:00,59.2,53.6,30.03,SW,236,0.0,0.0,82,0.00,,,0.00,WSDL version 420,2013-08-06 03:03:00,
2013-08-05 23:12:00,59.1,53.7,30.03,South,180,0.0,0.0,82,0.00,,,0.00,WSDL version 420,2013-08-06 03:12:00,
2013-08-05 23:17:00,59.2,53.8,30.03,South,180,0.0,0.0,82,0.00,,,0.00,WSDL version 420,2013-08-06 03:17:00,
2013-08-05 23:25:00,58.5,53.4,30.03,South,180,0.0,0.0,83,0.00,,,0.00,WSDL version 420,2013-08-06 03:25:00,
2013-08-05 23:32:00,58.8,53.8,30.03,South,180,0.0,0.0,83,0.00,,,0.00,WSDL version 420,2013-08-06 03:32:00,
2013-08-05 23:40:00,58.6,53.6,30.03,South,180,0.0,0.0,83,0.00,,,0.00,WSDL version 420,2013-08-06 03:40:00,
2013-08-05 23:46:00,58.8,53.8,30.03,South,180,0.0,0.0,83,0.00,,,0.00,WSDL version 420,2013-08-06 03:46:00,
2013-08-05 23:53:00,58.8,53.7,30.03,South,180,0.0,0.0,83,0.00,,,0.00,WSDL version 420,2013-08-06 03:53:00,
2013-08-05 23:59:00,58.5,53.4,30.03,South,180,0.0,0.0,83,0.00,,,0.00,WSDL version 420,2013-08-06 03:59:00,